User: anonymous
Location: Caltech
(34.1382°N, 118.1253°W)
Time: 19:15:33
(UTC-07:00)
Language:

Iridium 75 - Orbit

View from above orbital plane
View from above orbital plane
View from above satellite
View from above satellite

Ground track
Ground track

The orbit data is extracted from the following two-line orbital elements,

1 25346U 98032E   14245.39363925  .00000208  00000-0  67308-4 0  9547
2 25346 086.3942 289.9348 0002372 108.6815 006.4618 14.34219599853648
Epoch (UTC): 02 September 2014 09:26:50
Eccentricity: 0.0002372
inclination: 86.3942°
perigee height: 776 km
apogee height: 779 km
right ascension of ascending node: 289.9348°
argument of perigee: 108.6815°
revolutions per day: 14.34219599
mean anomaly at epoch: 6.4618°
orbit number at epoch: 85364

The dashed part of the orbit path shows where the satellite is in the earth's shadow,  

DLR